Weaverville, CA

6:55 PM PDT on August 28, 2016 (GMT -0700)
Weaverville

Weather History for KO54 - January, 2013

Change the Weather History Date:

Saturday, January 19, 2013

  Actual Average (KRDD) Record (KRDD)
Temperature  
Mean Temperature 36 °F -  
Max Temperature 53 °F 55 °F 73 °F (2009)
Min Temperature 19 °F 37 °F 25 °F (1987)
Degree Days  
Heating Degree Days 29    
Cooling Degree Days 0    
Moisture  
Dew Point 25 °F    
Average Humidity 81    
Maximum Humidity 100    
Minimum Humidity 35    
Precipitation  
Precipitation 0.00 in 0.19 in 1.45 in (2012)
Month to date precipitation 3.76  
Year to date precipitation 3.76  
Sea Level Pressure  
Sea Level Pressure 30.30 in    
Wind  
Wind Speed 0 mph (SW)    
Max Wind Speed 4 mph    
Max Gust Speed -    
Visibility 9 miles    
Events      
T = Trace of Precipitation, MM = Missing Value Source: NWS Daily Summary

Daily Weather History Graph

Daily Weather History Graph

Search for Another Location

Airport or City:

Trip Planner

Search our weather history database for the weather conditions in past years. The results will help you decide how hot, cold, wet, or windy it might be!

Date:

Astronomy

Jan. 19, 2013 Rise Set
Actual Time 7:31 AM PST 5:13 PM PST
Civil Twilight 7:01 AM PST 5:43 PM PST
Nautical Twilight 6:28 AM PST 6:17 PM PST
Astronomical Twilight 5:55 AM PST 6:50 PM PST
Moon 11:43 AM PST (1/19) 1:10 AM PST (1/19)
Length of Visible Light 10h 42m
Length of Day
9h 42m
First Quarter, 58% of the Moon is Illuminated
Jan 19
First Quarter
Jan 26
Full
Feb 3
Last Quarter
Feb 9
New
Feb 17
First Quarter

Hourly Weather History & Observations

Time (PST) Temp. Windchill Dew Point Humidity Pressure Visibility Wind Dir Wind Speed Gust Speed Precip Events Conditions
12:15 AM 24.8 °F - 23.0 °F 93% 30.28 in 4.0 mi Calm Calm - N/A   Unknown
12:35 AM 24.8 °F 20.5 °F 23.0 °F 93% 30.28 in 9.0 mi North 3.5 mph - N/A   Unknown
12:55 AM 24.8 °F - 23.0 °F 93% 30.28 in 10.0 mi Calm Calm - N/A   Unknown
1:15 AM 24.8 °F - 23.0 °F 93% 30.28 in 10.0 mi Calm Calm - N/A   Unknown
1:35 AM 24.8 °F - 23.0 °F 93% 30.28 in 9.0 mi Calm Calm - N/A   Unknown
1:55 AM 23.0 °F - 23.0 °F 100% 30.29 in 10.0 mi Calm Calm - N/A   Unknown
2:15 AM 23.0 °F - 23.0 °F 100% 30.30 in 10.0 mi Calm Calm - N/A   Unknown
2:35 AM 23.0 °F - 21.2 °F 93% 30.30 in 10.0 mi Calm Calm - N/A   Unknown
2:55 AM 23.0 °F - 21.2 °F 93% 30.30 in 7.0 mi Calm Calm - N/A   Unknown
3:15 AM 23.0 °F - 21.2 °F 93% 30.30 in 8.0 mi Calm Calm - N/A   Unknown
3:35 AM 23.0 °F - 19.4 °F 86% 30.30 in 9.0 mi Calm Calm - N/A   Unknown
4:35 AM 23.0 °F - 19.4 °F 86% 30.31 in 10.0 mi Calm Calm - N/A   Unknown
4:55 AM 21.2 °F - 19.4 °F 93% 30.31 in 10.0 mi Calm Calm - N/A   Unknown
5:15 AM 21.2 °F - 19.4 °F 93% 30.31 in 10.0 mi Calm Calm - N/A   Unknown
5:55 AM 19.4 °F - 19.4 °F 100% 30.32 in 10.0 mi Calm Calm - N/A   Unknown
6:35 AM 19.4 °F - 17.6 °F 93% 30.32 in 8.0 mi Calm Calm - N/A   Unknown
7:35 AM 19.4 °F - 17.6 °F 93% 30.33 in 0.2 mi Calm Calm - N/A   Unknown
7:55 AM 19.4 °F - 17.6 °F 93% 30.34 in 5.0 mi Calm Calm - N/A   Unknown
8:15 AM 19.4 °F - 17.6 °F 93% 30.35 in 2.0 mi Calm Calm - N/A   Unknown
8:35 AM 19.4 °F - 19.4 °F 100% 30.35 in 8.0 mi Calm Calm - N/A   Unknown
8:55 AM 21.2 °F - 19.4 °F 93% 30.36 in 8.0 mi Calm Calm - N/A   Unknown
9:15 AM 23.0 °F - 21.2 °F 93% 30.36 in 0.5 mi Calm Calm - N/A   Unknown
9:35 AM 24.8 °F - 23.0 °F 93% 30.37 in 4.0 mi Calm Calm - N/A   Unknown
9:55 AM 26.6 °F - 24.8 °F 93% 30.37 in 8.0 mi Calm Calm - N/A   Unknown
10:15 AM 28.4 °F - 26.6 °F 93% 30.36 in 9.0 mi Calm Calm - N/A   Unknown
10:35 AM 30.2 °F - 28.4 °F 93% 30.36 in 10.0 mi Calm Calm - N/A   Unknown
10:55 AM 32.0 °F - 28.4 °F 87% 30.35 in 10.0 mi Calm Calm - N/A   Unknown
11:15 AM 33.8 °F 30.8 °F 28.4 °F 81% 30.34 in 10.0 mi SSW 3.5 mph - N/A   Unknown
11:55 AM 39.2 °F - 28.4 °F 65% 30.32 in 10.0 mi Calm Calm - N/A   Unknown
12:15 PM 41.0 °F - 28.4 °F 61% 30.31 in 10.0 mi Calm Calm - N/A   Unknown
12:35 PM 42.8 °F - 26.6 °F 53% 30.29 in 10.0 mi Calm Calm - N/A   Unknown
12:55 PM 44.6 °F - 26.6 °F 49% 30.29 in 10.0 mi Calm Calm - N/A   Unknown
1:15 PM 46.4 °F - 26.6 °F 46% 30.28 in 10.0 mi Calm Calm - N/A   Unknown
1:35 PM 48.2 °F - 26.6 °F 43% 30.27 in 10.0 mi SSW 3.5 mph - N/A   Unknown
1:55 PM 48.2 °F - 26.6 °F 43% 30.26 in 10.0 mi Calm Calm - N/A   Unknown
2:15 PM 50.0 °F - 26.6 °F 40% 30.25 in 10.0 mi Calm Calm - N/A   Unknown
2:35 PM 51.8 °F - 28.4 °F 41% 30.25 in 10.0 mi Calm Calm - N/A   Unknown
2:55 PM 53.6 °F - 28.4 °F 38% 30.24 in 10.0 mi SSW 3.5 mph - N/A   Unknown
3:15 PM 53.6 °F - 28.4 °F 38% 30.24 in 10.0 mi Calm Calm - N/A   Unknown
3:35 PM 53.6 °F - 26.6 °F 35% 30.24 in 10.0 mi SSW 3.5 mph - N/A   Unknown
3:55 PM 51.8 °F - 28.4 °F 41% 30.24 in 10.0 mi SSW 3.5 mph - N/A   Unknown
4:15 PM 50.0 °F - 28.4 °F 43% 30.24 in 10.0 mi Calm Calm - N/A   Unknown
4:35 PM 46.4 °F - 32.0 °F 57% 30.24 in 10.0 mi Calm Calm - N/A   Unknown
4:55 PM 41.0 °F - 30.2 °F 65% 30.24 in 8.0 mi Calm Calm - N/A   Unknown
5:15 PM 37.4 °F - 28.4 °F 70% 30.25 in 10.0 mi Calm Calm - N/A   Unknown
5:35 PM 35.6 °F 32.8 °F 28.4 °F 75% 30.25 in 10.0 mi NNE 3.5 mph - N/A   Unknown
5:55 PM 33.8 °F - 28.4 °F 81% 30.26 in 10.0 mi Calm Calm - N/A   Unknown
6:15 PM 32.0 °F - 28.4 °F 87% 30.26 in 9.0 mi Calm Calm - N/A   Unknown
6:35 PM 32.0 °F 28.7 °F 28.4 °F 87% 30.26 in 8.0 mi NE 3.5 mph - N/A   Unknown
6:55 PM 32.0 °F - 26.6 °F 80% 30.27 in 7.0 mi Calm Calm - N/A   Unknown
7:15 PM 30.2 °F - 26.6 °F 86% 30.27 in 8.0 mi Calm Calm - N/A   Unknown
7:35 PM 28.4 °F - 26.6 °F 93% 30.28 in 9.0 mi Calm Calm - N/A   Unknown
7:55 PM 28.4 °F - 26.6 °F 93% 30.28 in 7.0 mi Calm Calm - N/A   Unknown
8:15 PM 28.4 °F - 26.6 °F 93% 30.29 in 8.0 mi Calm Calm - N/A   Unknown
8:35 PM 28.4 °F - 26.6 °F 93% 30.29 in 7.0 mi Calm Calm - N/A   Unknown
8:55 PM 28.4 °F - 26.6 °F 93% 30.30 in 8.0 mi Calm Calm - N/A   Unknown
9:15 PM 26.6 °F - 26.6 °F 100% 30.30 in 10.0 mi Calm Calm - N/A   Unknown
9:35 PM 26.6 °F - 24.8 °F 93% 30.30 in 10.0 mi Calm Calm - N/A   Unknown
9:55 PM 26.6 °F - 24.8 °F 93% 30.31 in 10.0 mi Calm Calm - N/A   Unknown
10:15 PM 26.6 °F - 24.8 °F 93% 30.31 in 8.0 mi Calm Calm - N/A   Unknown
10:55 PM 26.6 °F - 24.8 °F 93% 30.32 in 10.0 mi Calm Calm - N/A   Unknown
11:15 PM 26.6 °F - 24.8 °F 93% 30.33 in 10.0 mi Calm Calm - N/A   Unknown
11:35 PM 24.8 °F - 24.8 °F 100% 30.32 in 9.0 mi Calm Calm - N/A   Unknown
11:55 PM 24.8 °F - 24.8 °F 100% 30.32 in 8.0 mi Calm Calm - N/A   Unknown